Wind_Speed
37 34 30 27 23 21 21 20 18 17 15 11 9 8 8 9 9 8 10 13 14 15 16 18 18 18 17 17 17 16 15 14 13 14 14 13 12 11 10 9 8 7 5 3 4 6 8 10 12 13 13 13 12 11 11 13 14 15 15 15 15 15 14 14 13 13 14 15 15 15 15 16 17 14 10 9 9 8 8 9 14 17 18 18 16
39 35 29 26 24 23 20 18 16 15 14 9 8 8 9 9 7 9 12 13 14 16 18 18 18 17 16 15 15 14 13 13 13 14 13 13 13 13 12 11 11 9 6 3 3 6 9 11 13 14 15 13 12 11 12 14 15 16 16 16 16 15 14 14 14 14 14 14 13 12 13 14 16 15 12 12 11 10 8 7 9 10 12 14 16
40 33 27 25 24 22 18 16 14 14 11 7 7 8 10 8 8 11 12 13 15 18 19 19 18 17 16 15 14 13 13 13 14 14 14 14 14 14 13 13 13 12 9 5 2 6 9 12 13 15 16 15 13 10 11 15 16 16 17 18 16 14 12 12 13 13 14 14 12 10 11 11 13 14 12 11 10 9 7 9 11 8 9 9 10
39 31 27 25 23 21 17 14 13 11 8 6 7 9 9 7 9 11 12 13 17 19 20 19 19 18 15 15 14 13 14 14 15 15 15 14 14 14 14 13 14 14 13 8 2 6 10 13 13 14 16 15 14 12 11 13 16 16 17 18 15 12 11 10 11 11 12 13 11 9 9 10 9 11 12 9 9 10 7 8 8 7 10 10 10
36 30 27 25 23 21 17 14 12 10 8 8 9 10 8 8 10 10 11 14 18 21 21 20 20 18 16 15 14 14 15 15 16 16 16 16 15 15 14 14 14 15 15 10 4 7 12 14 13 14 16 14 12 12 11 11 14 15 15 15 13 11 10 9 9 10 10 11 10 8 7 9 8 9 13 9 8 10 9 8 6 6 8 7 10
33 29 26 24 23 20 17 15 12 9 8 8 9 9 7 8 8 9 10 14 18 21 21 20 20 18 16 15 15 15 16 17 17 17 17 17 16 16 15 14 15 17 17 12 8 9 13 16 15 14 15 14 12 11 11 11 11 11 12 11 10 9 9 8 7 8 9 10 9 8 8 9 9 10 13 9 6 10 8 8 6 6 4 4 7
31 27 24 22 21 18 15 13 10 7 7 8 9 7 6 7 7 8 10 14 18 21 20 20 19 18 16 16 16 16 17 18 18 18 18 18 17 16 15 14 16 19 19 15 13 14 15 16 16 14 14 12 10 8 9 11 9 9 10 8 8 7 7 7 6 7 8 9 9 8 8 9 10 9 9 8 8 9 6 7 8 6 4 1 3
29 25 21 20 19 15 13 11 8 6 6 8 8 6 6 6 6 8 11 14 18 21 20 19 19 18 17 16 17 17 17 18 19 19 19 18 17 16 14 14 16 19 20 17 17 18 19 19 17 15 13 11 9 7 6 8 7 7 9 7 5 5 6 6 6 7 8 8 9 8 8 9 11 9 7 7 8 9 5 4 6 7 5 2 5
27 24 20 19 17 13 12 9 7 6 6 8 8 6 6 6 6 9 11 14 18 21 19 18 19 17 17 16 17 17 18 19 19 19 19 18 17 16 15 15 16 19 20 17 17 20 21 20 17 15 12 11 9 8 7 6 6 7 8 6 5 5 6 6 6 7 6 7 8 8 8 9 12 11 9 8 7 9 7 7 7 6 3 4 6
25 23 20 19 16 12 11 8 6 6 7 8 8 6 6 5 7 9 12 15 18 19 18 18 18 17 17 16 16 17 18 18 18 18 18 17 17 17 16 16 17 18 20 19 18 20 22 19 17 14 11 10 8 7 7 6 5 6 6 6 6 6 6 5 5 5 4 5 7 7 8 9 11 11 10 9 9 9 8 10 8 4 4 5 6
24 23 20 18 14 11 10 7 5 6 7 8 8 7 6 6 7 10 12 16 18 18 17 17 17 17 17 16 16 17 17 17 17 17 17 17 17 17 17 17 18 18 19 20 21 21 22 19 16 12 9 7 6 5 5 4 4 4 4 5 6 7 7 6 5 4 3 3 6 7 8 9 9 10 10 11 11 10 9 10 8 3 5 5 6
24 22 19 17 12 10 8 6 5 6 8 9 8 8 7 7 8 11 13 16 17 17 17 17 16 17 17 16 16 17 17 18 18 18 17 17 18 18 18 18 19 20 20 21 22 23 23 20 15 11 9 7 5 4 2 1 1 2 4 5 6 7 7 6 5 5 4 4 6 7 8 7 8 9 10 12 12 10 9 9 5 2 4 5 6
23 22 19 16 11 8 7 5 5 6 9 9 8 8 8 8 10 12 14 15 16 16 17 17 17 17 17 17 17 17 17 17 18 18 17 18 20 19 19 19 20 21 21 21 22 24 24 23 19 14 11 8 7 6 5 3 1 2 4 5 6 6 6 6 7 6 5 6 7 8 8 6 8 9 8 8 11 10 7 4 1 3 4 4 6
23 21 17 13 9 7 5 4 5 7 9 8 8 8 8 9 11 13 14 15 16 17 18 18 18 17 17 17 18 18 18 17 18 19 19 20 21 20 20 21 21 22 23 23 24 25 26 26 24 21 17 14 11 9 6 6 4 4 5 7 8 9 9 9 10 10 7 7 7 7 9 8 8 8 4 4 7 7 6 6 5 6 6 6 7
22 19 16 11 7 5 4 4 5 7 8 8 7 8 9 10 12 13 14 15 17 18 18 18 18 17 17 19 19 20 19 19 20 21 21 22 23 23 23 23 24 24 24 25 25 26 27 27 26 25 23 20 17 14 12 11 10 9 10 11 11 12 12 12 12 12 9 7 8 7 7 8 8 8 5 3 5 7 7 7 7 7 7 8 8
21 17 14 9 6 4 3 4 5 7 8 7 7 8 10 11 13 13 14 16 18 19 18 18 18 18 19 21 21 22 21 22 23 24 24 24 24 25 26 25 25 25 26 26 26 26 27 27 26 25 25 24 24 22 19 17 16 15 14 13 12 12 11 11 11 12 10 8 9 8 7 7 8 10 7 6 9 10 10 8 7 7 7 7 6
18 15 12 7 4 2 3 4 5 7 8 7 7 9 11 12 13 13 15 17 19 19 19 18 18 19 21 23 24 25 26 27 28 28 27 27 26 26 26 26 26 27 27 27 27 27 27 26 26 25 25 25 25 25 24 22 20 19 17 16 14 13 12 11 11 11 11 10 9 8 7 8 9 11 12 13 15 14 13 9 6 5 5 4 3
16 13 10 5 2 1 3 4 5 6 7 8 8 10 12 13 14 14 17 19 20 20 20 20 21 22 25 27 30 32 33 35 35 34 33 32 31 30 29 28 29 29 29 29 29 29 27 27 27 26 26 26 25 25 25 23 22 21 19 18 16 15 14 13 12 12 12 11 8 7 7 7 8 10 12 13 14 13 11 5 1 1 0 1 2
14 12 7 3 1 1 4 5 5 6 8 9 9 11 13 14 15 16 18 20 21 22 23 24 25 26 30 34 37 39 40 41 41 41 40 39 38 36 35 33 32 32 32 31 31 30 29 29 29 29 28 28 28 27 27 26 24 23 21 20 19 18 17 16 15 15 14 12 9 9 11 11 10 9 8 7 7 7 6 5 5 4 4 4 4
13 10 6 1 2 3 6 6 5 7 9 10 10 12 13 15 16 18 20 21 22 24 25 27 29 32 36 39 41 42 42 42 43 43 43 44 43 43 42 40 38 37 36 35 34 33 32 31 31 31 32 31 31 31 30 30 29 28 27 26 25 23 21 20 18 17 16 14 12 12 13 14 15 16 15 13 12 10 9 9 8 7 7 6 6
13 9 4 2 3 4 7 7 6 8 10 11 11 13 15 16 18 20 22 24 25 27 29 31 34 36 38 40 40 40 40 41 41 41 41 42 44 45 44 44 43 42 41 40 39 37 37 36 35 36 36 36 36 36 36 37 36 36 36 35 34 33 32 31 29 27 24 21 19 17 16 16 17 18 19 18 16 15 13 12 11 10 9 8 8
12 8 2 3 4 6 8 7 7 9 11 11 12 14 16 19 21 22 24 26 29 31 33 36 38 38 39 39 39 38 39 39 38 37 38 39 42 44 44 45 44 44 44 43 43 42 41 40 40 40 40 40 38 38 40 41 41 41 41 40 40 40 40 40 39 38 37 35 32 30 28 26 24 23 21 20 18 16 15 14 13 11 10 10 9
10 6 2 5 6 8 9 8 8 11 12 12 13 16 19 21 23 25 26 28 31 34 36 38 38 37 36 36 37 37 38 39 38 37 38 39 40 42 43 44 43 44 44 44 44 43 42 42 42 42 41 41 40 40 41 41 41 41 41 41 41 41 41 41 42 42 42 42 41 40 39 38 36 34 31 29 26 24 22 20 19 18 16 15 14
8 4 4 7 7 9 10 8 10 12 12 12 14 17 21 24 26 28 29 30 32 35 37 38 36 35 35 35 36 37 37 38 38 38 39 39 39 40 41 42 42 41 41 41 41 41 40 40 39 40 39 39 40 41 41 41 42 41 41 41 42 42 42 42 42 42 42 43 43 43 43 43 42 41 40 38 37 35 33 31 30 29 28 27 25
6 3 6 8 9 11 10 9 11 13 13 13 15 19 23 26 29 31 31 32 34 36 37 36 35 34 34 35 35 36 36 37 37 38 38 38 38 38 39 40 40 40 39 39 39 38 37 38 38 38 38 39 41 41 41 42 42 42 42 42 42 42 42 42 42 42 42 42 42 43 42 42 42 42 41 41 40 39 38 37 36 35 34 33 32
3 5 8 10 11 12 10 10 13 14 14 14 15 20 25 28 30 32 33 33 34 36 36 35 34 34 34 34 34 34 34 35 35 36 37 37 37 37 38 38 38 38 38 38 38 37 36 36 37 37 38 39 40 40 41 41 41 41 41 41 42 42 42 42 41 42 42 42 42 42 42 42 41 41 41 40 39 38 38 37 36 36 35 35 34
4 7 10 11 13 13 10 11 14 14 14 15 16 21 26 29 31 32 33 34 34 35 35 34 33 33 33 34 33 33 33 33 33 34 35 36 36 36 37 37 37 37 37 37 37 36 36 35 35 36 37 38 39 39 40 40 40 40 40 41 41 41 41 41 41 41 41 41 41 41 41 41 40 40 39 39 38 37 36 36 35 35 34 34 33
7 9 11 12 14 14 11 13 15 15 15 15 17 22 28 30 32 33 33 33 33 34 34 34 33 32 33 33 32 32 32 31 31 32 33 33 34 35 35 36 36 36 36 36 36 35 35 35 35 35 36 37 37 38 38 38 38 39 39 39 40 40 40 41 41 41 41 41 40 40 39 39 39 38 38 37 36 36 35 34 34 33 32 31 31
10 10 12 13 15 14 12 14 15 15 16 16 17 22 28 31 32 33 33 32 32 32 33 33 33 32 32 32 32 31 31 30 30 30 30 31 32 32 33 33 34 34 34 35 34 34 33 34 34 34 34 35 35 36 36 36 37 37 37 38 38 38 39 40 40 40 40 40 39 39 39 38 38 37 37 36 35 35 34 33 32 31 30 29 28
12 11 12 14 16 14 14 15 16 16 16 17 18 23 28 31 32 32 32 31 31 31 32 32 32 32 32 31 31 31 31 30 29 28 28 28 29 30 30 30 31 31 32 32 32 32 32 32 32 32 32 33 33 33 34 34 35 35 35 35 36 36 37 38 38 38 38 38 37 37 37 37 37 36 36 35 35 34 33 32 31 30 29 28 27
12 12 13 16 16 14 15 16 16 17 17 17 18 22 28 31 31 31 31 30 30 31 31 31 32 32 31 31 31 30 30 29 28 27 27 26 27 28 28 28 28 29 29 30 31 31 31 31 30 30 30 30 31 31 32 33 33 33 34 34 34 35 35 36 36 36 35 35 35 34 34 34 34 33 33 32 32 32 31 31 30 29 28 28 27
12 13 14 17 16 15 16 17 17 17 18 18 18 22 27 30 31 31 30 30 29 30 30 30 31 31 30 29 29 30 30 29 28 27 27 26 26 26 26 26 27 27 28 28 29 29 29 29 29 28 28 28 29 29 30 31 31 32 32 32 33 33 33 33 33 33 33 32 32 31 30 30 30 30 29 29 29 28 28 28 27 27 26 26 25
12 13 15 16 16 15 17 18 18 18 19 19 19 22 26 29 30 30 30 29 28 29 29 29 29 30 29 28 28 28 28 29 28 28 28 27 27 27 26 26 26 26 27 27 27 27 28 28 27 27 27 27 28 28 29 30 30 30 30 31 31 31 31 30 30 30 30 29 29 28 28 28 27 27 27 26 26 25 25 25 25 24 24 23 23
12 14 16 16 15 16 18 19 19 19 20 19 19 22 25 28 30 30 29 28 27 27 27 27 27 28 27 27 26 26 26 27 27 27 27 28 28 28 28 27 27 27 27 27 27 27 27 27 26 26 27 27 27 28 28 29 29 29 29 29 29 29 29 29 29 29 29 28 28 27 27 26 26 26 25 24 24 23 23 23 22 22 21 21 20
13 15 17 16 16 17 18 20 20 20 21 20 19 21 25 27 29 29 28 27 26 25 25 25 25 26 26 25 24 24 25 25 25 25 25 26 27 27 27 28 28 28 28 28 28 28 27 27 27 27 27 27 27 28 28 28 28 27 27 27 28 28 28 28 28 28 28 28 27 27 26 26 25 25 24 24 23 23 22 21 21 20 20 19 19
13 16 17 15 16 17 18 20 21 21 22 20 20 21 24 27 28 28 27 26 25 24 23 23 23 23 24 23 22 22 23 23 23 23 23 23 24 25 26 26 27 28 29 29 29 29 28 28 27 27 27 27 27 27 27 27 26 26 27 27 27 27 27 27 27 27 27 26 26 26 26 25 25 24 24 23 23 22 22 21 20 20 19 18 18
13 16 16 14 15 17 19 21 21 23 22 21 20 21 24 26 27 27 26 25 23 22 21 21 20 21 22 21 20 20 20 21 22 21 21 21 22 22 23 24 25 26 27 28 28 29 28 28 27 27 27 26 26 26 26 26 26 26 26 26 26 26 26 26 26 26 25 25 26 26 25 25 24 24 24 23 23 23 22 22 21 20 19 18 17
13 16 16 14 15 17 19 21 22 24 23 21 21 22 23 25 26 25 25 24 22 21 19 18 17 18 19 18 18 18 18 19 20 20 20 19 20 21 22 23 24 24 25 26 27 27 28 27 27 27 26 26 26 26 25 25 25 25 25 25 25 25 25 25 25 25 25 25 25 26 25 25 25 25 24 24 24 23 22 22 21 20 19 18 17
13 16 14 13 14 16 19 21 23 24 24 21 21 22 23 24 25 25 24 23 21 19 18 16 15 15 16 16 16 16 17 17 18 18 18 18 18 19 21 22 23 24 25 25 26 27 27 27 27 26 26 26 25 25 24 24 24 24 24 24 24 24 24 24 24 24 24 24 25 26 26 26 26 25 25 24 24 23 22 22 21 20 19 18 17
12 15 13 12 14 15 18 21 23 25 24 22 21 22 22 23 24 24 23 22 20 18 17 15 13 13 13 13 13 14 15 16 16 16 17 17 17 18 20 22 23 24 24 25 25 26 26 26 26 26 25 25 25 24 24 23 23 23 23 23 23 23 23 23 23 23 24 24 26 26 26 26 26 26 26 25 24 24 23 22 21 21 20 19 18
10 14 13 13 14 15 17 21 22 24 25 23 22 22 22 22 23 22 22 21 20 18 16 15 14 12 11 11 11 12 13 14 15 15 16 16 16 17 19 21 22 23 23 23 24 24 24 25 25 25 25 24 24 23 23 22 22 22 22 22 22 22 23 23 23 24 24 25 26 27 27 27 27 27 26 26 25 24 24 23 22 21 21 20 19
10 13 14 13 15 16 18 21 23 25 26 25 24 24 23 23 23 22 22 21 20 18 17 16 14 13 11 10 9 10 12 13 14 15 15 15 15 16 18 19 20 21 21 22 22 23 23 23 23 23 23 23 22 22 22 22 22 22 23 22 22 23 23 24 24 24 25 26 27 27 28 28 28 28 27 27 26 25 24 23 22 21 20 20 19
9 13 15 14 15 16 18 21 24 26 28 27 25 24 24 24 23 22 21 21 20 18 17 16 15 13 10 9 9 9 10 12 14 15 15 14 14 14 15 17 18 18 19 20 21 21 21 21 21 21 21 21 21 22 22 22 23 23 23 23 23 23 24 24 25 25 26 26 27 29 30 30 29 29 28 26 25 24 23 22 21 20 20 20 19
8 10 13 14 13 15 18 20 23 25 28 27 25 24 24 23 23 22 21 20 19 18 17 16 15 13 11 9 10 9 9 11 13 14 14 14 13 13 13 15 15 16 17 18 19 19 19 19 19 19 19 20 21 21 22 23 23 23 23 24 24 24 25 25 25 26 27 28 29 30 31 31 30 28 26 25 23 23 22 21 20 20 20 20 20
9 9 12 13 12 13 17 19 22 24 27 28 25 23 22 22 21 21 20 19 18 17 17 16 15 14 12 11 11 9 8 9 11 13 13 13 12 11 11 13 14 14 15 16 16 17 17 17 17 17 17 18 19 20 21 22 23 23 23 24 24 25 25 26 26 27 28 29 30 32 33 33 30 27 25 23 23 22 21 20 20 20 20 21 21
9 9 11 14 13 12 15 19 21 23 26 28 25 22 20 21 21 20 19 19 18 18 17 16 15 14 13 12 11 9 8 8 10 11 11 11 11 10 10 11 12 12 13 14 14 14 15 15 15 15 16 16 17 18 19 20 21 21 22 23 24 25 26 27 27 28 29 30 32 34 35 34 30 26 24 23 22 22 21 21 21 21 22 23 23
9 9 10 14 15 13 14 17 20 22 24 26 26 23 20 20 21 21 21 21 20 19 18 17 16 15 14 12 11 9 8 7 8 9 10 9 9 9 9 9 10 10 11 11 12 12 13 13 13 13 13 14 14 16 17 17 18 19 20 22 23 24 26 27 28 29 30 31 33 35 36 34 28 25 23 22 23 23 22 22 22 23 24 25 25
10 9 9 12 13 13 13 15 18 22 24 25 26 25 22 21 22 23 23 23 22 20 19 18 17 16 14 13 11 10 8 7 7 8 8 8 7 7 7 8 8 8 8 9 10 11 11 11 11 11 11 11 12 13 14 15 16 17 19 20 22 23 25 27 28 29 31 32 34 36 37 33 27 23 22 23 24 24 24 24 25 26 26 27 26
10 9 9 10 11 13 14 14 16 20 24 25 26 26 26 25 24 23 24 23 22 20 19 18 17 16 15 13 12 10 9 8 7 7 7 7 7 6 5 6 7 7 7 8 9 9 9 9 9 8 8 9 9 10 11 13 14 16 17 19 21 23 25 26 28 30 31 32 34 36 36 32 25 23 23 24 25 25 25 27 27 28 28 27 27
11 11 11 11 11 13 15 15 16 18 22 25 26 27 28 28 27 25 23 23 22 20 19 18 17 16 15 14 12 11 9 8 8 7 7 7 6 5 5 5 5 5 6 6 7 8 8 8 7 7 7 7 8 9 10 11 12 14 16 18 20 22 24 26 28 29 31 32 34 36 36 31 26 24 25 25 26 26 27 28 29 29 29 28 27
11 11 11 11 10 11 13 15 17 17 19 24 26 28 28 29 28 26 23 21 21 20 19 18 16 15 15 14 12 11 10 9 8 7 7 6 5 5 5 4 4 3 4 4 5 5 5 6 5 5 5 6 7 8 9 11 12 14 15 17 19 21 23 25 27 29 30 32 34 36 36 31 26 25 26 26 26 27 28 29 30 29 28 28 28
Wind_Direction
351 351 347 343 339 333 328 323 319 322 324 327 329 327 340 351 1 27 35 27 17 9 359 351 348 347 347 346 345 346 349 355 1 4 8 14 20 22 23 23 25 30 38 72 122 135 138 140 142 141 138 136 130 126 123 125 127 125 124 124 121 116 114 112 110 109 108 108 106 101 103 104 101 106 115 111 98 83 61 28 18 12 7 358 352
350 349 345 342 338 335 332 327 324 328 328 331 335 340 352 2 30 46 38 28 19 10 1 356 355 354 353 352 352 355 -0 5 7 9 14 21 27 28 30 34 36 33 34 52 119 139 143 142 142 141 137 132 127 128 132 131 129 127 126 122 117 115 114 111 108 109 109 109 109 107 113 114 117 133 137 126 124 121 113 99 76 38 29 17 4
348 345 343 341 339 338 336 333 329 328 329 336 345 354 1 20 51 48 38 29 18 10 4 2 1 360 359 -0 4 8 11 14 17 18 22 27 31 35 39 42 39 32 28 30 112 146 147 143 141 142 139 136 133 137 143 134 130 129 127 122 117 116 114 110 107 109 113 116 118 120 125 120 119 132 126 117 128 134 133 118 105 93 91 72 39
346 344 342 340 342 343 343 342 335 330 334 347 359 5 12 43 56 47 38 27 18 10 7 7 4 4 7 12 17 20 22 24 25 27 31 34 37 45 50 46 35 25 19 18 77 150 149 143 143 147 145 143 142 144 145 134 131 132 129 122 117 117 114 110 108 111 118 124 129 132 130 125 124 126 124 132 150 144 130 110 99 106 113 103 94
346 344 341 341 345 347 349 348 344 344 352 4 12 12 28 58 56 47 36 25 15 10 10 10 8 11 17 20 26 28 31 32 31 32 35 37 42 52 55 46 35 23 15 16 58 139 148 144 147 152 148 144 144 142 138 135 132 131 125 118 115 117 117 115 115 118 122 125 130 133 133 132 129 122 134 162 164 131 113 106 91 89 105 99 102
347 344 341 343 347 350 352 349 350 358 5 15 15 17 48 66 58 47 33 21 13 11 13 13 13 18 23 27 31 32 34 36 35 34 35 38 46 55 55 46 38 28 22 27 67 126 144 144 147 151 147 144 143 139 140 136 127 128 126 118 119 122 123 125 125 126 125 126 130 133 138 137 129 126 145 170 145 119 122 128 102 70 97 109 104
348 345 342 346 349 353 353 349 356 6 14 20 16 27 63 71 59 42 27 17 12 12 14 15 16 21 26 32 34 33 35 37 36 36 36 39 49 57 53 45 41 36 33 43 78 115 132 139 145 144 144 144 137 136 143 134 126 138 138 130 129 133 136 138 135 133 135 137 136 135 137 134 132 129 148 158 126 121 130 137 127 119 153 114 68
350 346 344 350 352 355 352 350 4 14 22 22 19 40 71 72 53 33 22 14 10 13 17 18 18 23 29 33 35 34 34 36 37 38 39 43 54 59 54 49 46 44 43 56 84 110 124 133 141 141 141 137 129 139 142 132 144 155 149 148 144 151 155 148 144 135 138 142 138 135 135 136 136 129 143 148 129 137 151 163 156 153 158 44 20
351 347 347 352 354 357 352 355 14 22 28 23 25 48 70 68 44 29 19 13 12 13 19 22 20 24 32 36 36 34 34 37 38 40 43 47 60 64 62 58 54 53 55 66 86 107 120 127 134 136 138 136 142 165 159 150 177 177 163 168 175 175 168 155 147 130 129 137 136 137 134 137 144 144 154 158 153 166 186 203 183 157 127 56 41
352 346 348 352 356 359 354 5 23 30 31 25 31 51 63 59 38 26 17 15 14 13 22 26 26 29 36 40 38 37 37 40 42 45 50 55 66 69 68 66 64 64 65 74 88 104 114 119 124 127 132 141 156 172 167 172 189 186 174 182 198 192 181 169 147 125 122 132 136 137 131 136 151 156 160 166 174 189 200 202 190 154 95 72 60
351 345 347 352 359 1 357 14 30 35 33 27 36 50 54 50 35 23 17 15 13 17 26 30 33 37 41 43 41 42 42 45 49 52 58 64 73 74 71 71 73 74 73 79 90 103 110 112 113 113 116 127 145 155 163 183 196 194 193 195 210 209 199 185 154 134 129 137 133 126 134 145 156 160 170 185 191 197 204 206 197 142 85 68 58
350 345 347 352 2 1 2 25 38 39 34 33 41 48 47 42 31 24 20 16 17 26 33 34 39 42 43 45 44 46 49 50 54 59 66 73 78 78 75 77 80 80 79 81 89 100 108 111 106 98 90 87 101 111 107 59 291 217 210 202 209 211 203 187 161 147 144 149 142 130 137 151 166 174 184 194 199 193 199 205 188 100 61 48 39
349 346 346 352 3 2 9 36 45 43 36 38 45 47 45 38 30 25 21 21 28 36 39 40 43 44 44 46 46 51 55 53 58 67 74 78 80 79 78 81 85 86 85 86 89 96 104 109 110 106 99 97 90 77 66 55 19 219 200 193 185 180 178 167 150 143 151 151 152 150 148 165 189 194 191 189 200 203 211 228 248 12 17 17 11
347 344 345 354 4 1 18 51 54 48 42 45 51 51 46 40 33 27 26 34 43 43 43 44 44 45 46 50 55 58 60 59 67 76 81 83 85 85 84 88 92 93 92 93 93 95 99 103 108 112 113 115 104 93 100 111 124 151 152 149 138 132 132 136 136 135 150 149 151 166 164 178 203 212 212 191 212 235 264 292 314 329 345 352 348
346 343 345 356 4 0 32 63 63 53 49 56 61 59 53 44 35 32 38 49 52 51 50 47 49 53 55 60 62 62 63 69 77 82 85 87 88 89 89 92 95 97 97 97 95 94 95 98 102 106 111 114 113 113 120 122 124 125 122 122 120 120 122 126 129 130 140 150 161 181 180 185 210 232 247 235 242 266 283 301 315 321 335 335 330
347 344 345 358 1 358 52 77 70 57 58 68 69 65 57 46 40 44 53 56 56 57 57 55 58 64 65 65 65 66 70 77 81 83 87 89 90 90 90 93 95 98 100 98 95 93 93 95 98 102 106 108 109 109 109 109 110 110 109 110 111 114 120 126 132 135 143 165 180 186 193 198 211 232 247 254 255 265 273 290 314 322 324 320 319
349 344 345 359 356 0 78 89 75 61 67 76 73 68 57 48 51 57 61 61 62 64 67 68 71 72 70 69 70 75 79 82 84 86 88 90 91 92 93 94 96 97 99 98 94 92 93 94 96 98 100 100 101 102 101 100 100 101 101 102 103 107 113 120 128 137 146 163 180 177 181 193 200 214 226 237 245 254 261 275 307 321 310 309 319
352 345 346 359 343 30 105 104 82 66 77 81 74 65 56 56 62 65 65 67 71 75 78 81 82 80 76 78 82 84 86 86 86 87 88 90 91 92 94 94 94 94 96 96 93 90 89 90 93 94 95 96 97 97 97 96 96 97 98 99 99 101 103 108 114 123 133 147 162 151 140 155 172 193 210 222 229 236 244 248 291 40 2 59 46
352 345 344 352 290 154 124 116 92 78 87 86 76 65 59 66 69 70 74 76 81 85 87 89 88 87 87 89 90 89 88 87 87 86 87 87 88 89 90 91 90 90 91 92 91 90 89 89 90 92 94 94 93 93 93 92 92 92 92 93 93 94 96 98 102 107 114 122 125 116 111 110 113 129 149 163 178 185 175 150 129 113 104 89 72
349 344 342 307 216 160 133 123 100 92 97 91 78 68 67 72 74 79 84 87 91 93 94 93 93 95 97 95 93 91 89 88 87 86 86 86 87 87 86 87 87 86 87 88 89 88 89 89 89 91 92 91 91 90 90 90 90 89 89 88 89 90 91 93 96 99 105 111 112 108 107 102 98 101 105 108 116 124 126 125 117 101 93 86 79
343 340 331 218 198 160 137 126 106 102 103 94 80 74 76 80 83 88 93 97 99 100 98 97 99 101 101 97 93 91 89 88 88 86 86 86 86 87 86 86 87 85 84 86 87 86 88 89 89 90 91 91 90 90 90 90 90 89 88 87 86 86 87 87 88 90 93 96 99 101 102 100 97 95 95 97 101 105 107 106 101 93 87 82 75
339 333 302 201 190 158 138 127 110 109 108 96 84 82 86 91 94 97 101 104 104 103 102 102 103 102 99 95 92 90 89 87 88 88 87 87 87 88 88 87 87 86 85 86 86 86 87 88 89 90 91 91 91 91 91 90 89 88 87 86 85 84 84 84 83 84 85 86 87 88 89 90 90 89 89 91 91 91 90 90 87 83 77 73 68
334 322 248 193 181 155 139 129 115 114 113 99 90 91 97 103 104 105 107 109 108 106 105 105 104 100 96 93 90 89 88 86 88 90 89 89 88 89 89 89 88 87 87 87 87 87 88 89 90 90 90 91 92 92 91 90 89 87 87 85 84 83 82 82 82 82 82 82 82 82 83 83 83 83 83 83 83 83 83 82 80 77 76 75 74
326 302 211 188 175 154 141 132 119 119 117 104 97 101 108 112 111 110 111 112 111 109 108 106 103 99 94 90 88 86 86 86 87 88 89 89 87 88 88 89 89 89 88 88 88 88 89 89 90 90 90 90 90 89 88 87 87 86 85 83 82 81 80 79 79 79 79 79 79 80 80 80 80 80 81 81 81 81 81 80 80 79 78 78 77
312 248 195 183 169 154 144 133 122 124 120 109 105 110 117 118 116 114 113 114 114 112 109 106 103 98 93 90 87 84 84 85 85 86 87 87 87 87 87 87 87 88 89 89 89 89 89 90 89 89 89 88 87 85 84 83 82 81 80 78 77 76 74 73 72 73 72 73 73 73 74 75 75 75 75 75 75 76 76 76 76 75 75 74 74
276 204 186 180 164 153 145 131 124 126 123 114 112 118 124 123 119 116 115 116 116 114 109 105 102 97 93 90 87 84 83 83 83 85 85 85 86 86 85 85 86 87 88 88 89 89 88 87 87 86 86 84 82 80 79 77 75 74 73 71 71 70 68 67 66 65 65 65 65 65 66 66 66 67 67 67 68 68 68 68 68 68 67 66 66
205 181 181 179 161 151 145 129 125 129 126 119 118 125 130 127 122 119 117 116 116 113 108 104 102 97 92 89 86 84 82 81 81 82 82 82 83 84 85 85 85 86 86 86 87 87 86 85 84 83 82 80 78 76 74 72 70 68 68 67 66 66 65 64 63 62 61 61 61 61 60 60 61 61 61 61 62 61 61 60 60 60 60 60 61
172 172 180 177 158 149 143 131 128 132 130 124 124 131 134 130 125 121 120 117 114 110 105 103 100 96 92 88 85 83 81 80 79 79 79 80 81 82 83 84 85 86 85 85 85 85 84 84 82 81 80 78 77 75 72 70 68 66 65 64 64 65 64 64 63 63 62 62 61 61 60 60 59 59 58 58 58 57 56 55 55 55 55 55 56
160 168 179 171 154 148 141 133 132 135 134 129 129 136 138 134 128 125 122 118 114 108 102 100 97 93 90 87 84 82 80 78 77 77 76 77 78 79 80 82 84 86 86 86 85 85 85 84 83 82 80 79 76 74 73 71 69 67 65 64 64 64 64 64 64 63 63 63 63 62 63 62 61 61 60 59 58 57 56 55 54 53 52 51 51
155 167 178 166 153 148 141 135 136 139 138 135 134 140 142 138 132 128 125 120 114 108 102 99 95 92 89 86 84 82 80 79 77 76 76 76 76 77 78 79 82 85 86 87 87 87 87 86 84 83 81 79 77 75 73 71 70 68 66 66 65 65 65 65 65 65 64 63 63 62 63 63 63 63 62 62 61 60 60 58 57 55 53 52 50
155 169 175 162 153 149 142 138 140 142 142 139 138 143 146 142 137 132 127 121 115 108 103 99 94 90 88 86 85 83 82 81 80 78 78 78 77 77 77 78 79 83 86 87 88 88 88 87 86 84 81 79 77 75 73 71 69 68 68 68 68 68 67 67 67 66 65 63 62 61 60 60 61 61 61 61 61 61 61 60 59 58 57 55 53
157 168 172 161 153 150 144 141 143 146 145 143 142 147 149 146 142 137 130 124 116 109 104 100 95 91 88 87 86 85 84 83 83 82 81 81 80 79 79 79 80 82 85 87 88 89 88 88 87 85 82 79 77 75 73 72 70 70 70 70 70 69 69 68 67 67 65 64 62 60 59 58 58 59 58 57 57 57 58 58 58 58 57 56 56
159 167 169 161 154 152 147 143 146 149 149 146 146 149 152 151 147 142 135 128 120 112 106 102 96 92 89 89 88 87 86 84 84 84 84 83 83 83 82 82 82 82 84 85 87 89 89 88 87 86 83 80 78 76 74 72 71 71 71 71 70 69 68 67 66 65 64 63 62 60 58 57 57 57 56 55 54 54 54 54 53 53 53 53 53
160 166 168 161 154 154 150 146 149 151 152 151 148 151 155 156 153 147 140 133 124 116 110 104 99 94 92 91 90 89 87 85 83 82 83 83 83 83 83 84 84 84 84 86 88 89 89 89 88 86 84 81 79 77 75 74 73 72 70 69 68 67 65 65 64 63 62 61 60 58 56 55 54 53 52 51 51 51 51 50 50 50 49 48 48
161 165 168 162 156 157 153 149 152 154 155 154 151 152 156 159 157 153 146 138 130 122 115 108 101 96 93 92 91 89 87 86 83 82 82 82 82 82 83 84 84 85 86 87 88 89 90 89 88 87 84 82 79 77 76 74 72 70 68 66 65 65 63 63 62 61 59 57 56 55 53 51 50 49 48 46 44 43 43 43 43 43 43 42 42
160 166 169 164 157 159 156 152 154 156 158 156 153 153 157 161 161 158 153 145 136 129 121 113 105 97 92 90 90 88 86 85 83 82 81 82 82 82 83 83 83 85 86 87 88 89 90 89 88 87 84 81 79 77 75 73 71 68 67 65 64 62 61 60 59 58 56 54 52 50 49 47 46 44 43 40 38 36 34 33 32 32 31 31 30
161 168 170 164 160 161 158 156 157 158 159 158 154 153 157 161 162 162 159 152 143 136 128 120 109 98 91 87 87 87 85 83 81 80 81 82 84 84 84 83 82 83 85 86 87 88 89 88 86 85 83 80 78 76 74 72 70 68 66 65 63 61 58 57 55 54 52 49 47 45 43 41 39 38 35 32 30 27 25 23 22 21 20 19 18
162 169 173 165 163 165 160 158 160 160 160 158 155 154 157 161 163 163 162 158 152 143 136 128 117 102 94 87 85 86 85 82 79 77 78 81 84 86 88 87 86 85 86 87 87 87 88 87 86 83 81 79 77 75 72 70 68 66 65 63 62 59 56 54 52 50 47 44 42 40 38 35 32 29 27 24 22 19 18 16 14 13 11 10 8
163 172 175 165 162 167 163 160 162 162 162 159 156 155 156 160 163 164 164 162 159 152 144 137 126 111 99 89 84 86 86 82 78 74 76 79 82 86 89 91 91 90 90 90 89 89 88 87 86 84 81 79 76 74 71 68 65 63 61 59 58 56 54 53 50 47 44 40 37 35 33 29 25 22 19 17 15 13 11 9 7 5 3 2 -0
164 172 175 164 160 168 166 162 164 164 163 160 157 157 158 160 163 164 165 164 162 159 153 147 138 123 107 94 86 87 89 85 79 74 75 79 82 86 89 92 94 93 92 91 90 89 88 87 86 84 81 79 76 73 69 66 63 60 57 54 53 52 51 49 47 44 40 36 34 31 28 23 19 16 13 11 9 7 5 3 1 360 359 357 355
164 172 173 166 159 165 169 165 165 167 166 163 159 159 160 161 163 165 165 164 163 161 157 152 146 134 119 103 92 92 92 88 81 76 76 81 85 89 91 93 94 93 91 90 88 87 86 85 84 82 80 77 74 70 67 63 59 56 53 50 49 48 47 46 44 40 37 34 30 27 23 18 14 10 7 5 4 3 1 -0 0 0 0 -0 359
162 171 173 170 162 164 171 169 168 170 170 168 164 162 163 163 164 165 166 165 163 161 158 154 149 142 131 114 103 101 98 91 84 80 79 83 88 92 94 95 94 92 90 88 87 86 84 83 81 79 76 73 71 67 64 59 55 53 50 48 46 46 45 43 40 37 34 30 27 23 18 13 9 6 4 3 3 4 4 5 6 8 8 8 7
161 174 178 177 169 166 172 174 172 173 175 173 169 165 164 164 165 166 166 165 163 161 159 156 152 148 141 127 117 113 105 94 87 83 81 84 90 94 95 95 94 92 91 89 87 86 84 83 80 77 73 70 68 65 62 58 55 53 51 49 47 45 43 41 38 35 31 28 24 19 14 10 7 5 5 5 8 11 13 14 15 16 15 13 10
161 175 184 183 177 170 172 178 177 176 177 178 175 170 166 164 164 166 167 165 165 163 161 159 156 153 150 141 131 124 113 99 91 88 85 85 89 94 95 95 94 93 92 90 89 87 84 82 79 76 72 68 66 63 60 57 55 53 51 49 47 44 42 39 36 32 28 25 21 17 13 9 7 7 9 12 16 19 20 20 20 18 17 14 10
167 171 186 187 185 179 173 178 182 180 180 182 181 176 169 164 162 164 166 166 166 166 164 162 160 159 156 150 143 135 123 106 97 93 90 86 87 93 95 95 94 94 92 90 88 86 83 80 76 72 68 66 65 61 59 57 55 54 51 48 45 42 39 36 33 30 26 22 18 15 12 9 10 12 17 20 23 24 23 21 20 18 16 13 10
178 169 179 185 189 189 178 177 183 184 183 185 186 182 174 168 165 163 164 166 168 169 169 167 165 163 161 157 152 145 135 119 106 100 97 92 87 90 95 97 96 95 92 89 87 85 82 78 74 70 66 64 63 61 60 57 54 52 49 45 41 38 35 32 29 27 23 20 16 14 11 10 12 17 22 23 24 24 22 20 19 18 16 13 10
186 177 175 182 188 193 187 181 184 185 185 186 189 188 182 176 172 170 170 171 172 173 172 171 169 168 167 165 162 157 148 133 119 112 107 103 94 90 91 97 100 98 94 90 88 87 84 80 76 72 67 63 61 60 58 55 51 47 44 40 36 33 30 27 25 23 21 18 15 13 11 12 15 20 23 23 23 22 20 20 19 19 17 14 10
184 184 180 184 187 191 196 191 186 186 186 187 190 192 190 187 184 182 181 179 178 177 177 176 175 175 175 173 171 168 162 150 135 126 121 119 115 106 100 101 105 105 101 95 92 92 88 85 81 75 67 61 56 54 52 48 44 40 37 34 30 28 25 23 21 20 18 16 14 12 11 12 17 21 22 21 21 21 20 20 20 20 18 14 11
179 182 187 190 188 189 198 199 190 189 189 187 189 193 195 196 196 193 190 188 184 182 183 183 183 183 184 182 179 178 175 168 157 146 138 137 138 136 128 120 115 112 106 99 96 96 94 90 85 78 68 58 52 47 43 38 35 32 30 28 25 23 21 19 17 16 15 14 13 11 10 12 17 19 20 20 21 21 20 20 20 20 18 15 14
182 182 188 193 192 190 194 199 197 194 193 191 190 194 197 199 202 201 199 195 192 190 189 188 189 189 190 191 189 187 186 181 173 165 157 153 156 157 153 145 133 121 108 98 94 93 94 91 86 79 66 52 43 37 31 27 25 23 22 20 19 18 17 16 14 13 12 12 11 9 9 12 15 18 19 19 20 20 19 20 20 19 19 19 19
191 185 186 193 197 197 195 195 199 200 197 196 195 197 200 201 203 206 205 201 198 197 196 194 194 195 195 197 198 197 196 193 187 181 175 173 173 173 169 162 153 137 116 98 86 82 83 83 79 70 58 45 35 27 20 17 14 14 13 12 12 13 13 13 12 10 10 10 10 8 8 11 14 16 17 18 19 19 20 20 20 21 24 26 26
Height
11000 10998 10997 10995 10993 10991 10990 10987 10985 10983 10981 10979 10977 10976 10975 10973 10971 10970 10968 10967 10966 10964 10963 10961 10959 10957 10955 10953 10951 10949 10947 10945 10943 10941 10940 10938 10937 10936 10935 10934 10933 10932 10932 10932 10932 10932 10932 10933 10933 10934 10936 10937 10938 10939 10939 10939 10939 10940 10941 10943 10944 10945 10945 10946 10947 10948 10949 10949 10950 10950 10951 10950 10950 10951 10952 10953 10953 10954 10955 10955 10955 10955 10955 10954 10952
10998 10997 10995 10993 10991 10990 10988 10985 10983 10982 10980 10978 10976 10975 10973 10972 10970 10969 10968 10967 10965 10964 10963 10961 10959 10957 10955 10953 10951 10949 10947 10945 10943 10941 10940 10938 10936 10935 10934 10933 10932 10932 10931 10931 10931 10932 10932 10933 10934 10935 10936 10938 10939 10940 10940 10940 10940 10940 10941 10943 10944 10945 10946 10947 10948 10948 10949 10950 10950 10949 10949 10948 10947 10947 10948 10949 10949 10949 10950 10950 10951 10953 10954 10954 10953
10997 10995 10993 10992 10990 10989 10987 10984 10983 10981 10979 10977 10975 10974 10972 10971 10969 10968 10967 10966 10965 10964 10962 10961 10958 10956 10955 10953 10951 10949 10947 10945 10943 10941 10940 10938 10937 10935 10934 10933 10932 10931 10931 10930 10930 10931 10931 10933 10935 10935 10936 10937 10938 10939 10939 10940 10941 10941 10942 10943 10944 10945 10946 10947 10948 10949 10949 10950 10949 10947 10947 10948 10948 10948 10950 10951 10951 10951 10950 10949 10949 10949 10949 10949 10950
10995 10993 10991 10990 10989 10988 10985 10983 10982 10980 10978 10976 10974 10972 10971 10969 10968 10967 10967 10966 10965 10964 10962 10960 10958 10956 10954 10952 10950 10949 10947 10945 10943 10942 10940 10939 10937 10936 10935 10934 10933 10932 10930 10929 10929 10930 10931 10933 10934 10934 10936 10936 10937 10938 10939 10940 10941 10942 10943 10943 10944 10946 10947 10948 10948 10949 10949 10949 10948 10947 10948 10949 10950 10951 10952 10952 10952 10952 10952 10951 10951 10950 10948 10945 10945
10992 10990 10988 10987 10985 10984 10982 10981 10980 10978 10976 10974 10972 10971 10970 10969 10968 10967 10967 10966 10965 10964 10962 10960 10958 10956 10954 10952 10950 10949 10947 10945 10943 10942 10940 10939 10938 10937 10936 10935 10934 10932 10930 10929 10928 10929 10931 10932 10934 10935 10937 10937 10938 10939 10940 10941 10941 10942 10943 10944 10945 10946 10947 10948 10948 10949 10949 10949 10949 10948 10949 10950 10951 10952 10951 10952 10952 10952 10952 10952 10953 10952 10951 10947 10945
10990 10988 10986 10984 10983 10981 10980 10979 10978 10976 10975 10973 10972 10971 10970 10969 10969 10968 10968 10967 10966 10964 10962 10960 10958 10956 10954 10952 10950 10948 10947 10945 10944 10942 10941 10939 10938 10937 10936 10935 10934 10932 10930 10928 10927 10928 10931 10933 10934 10937 10938 10939 10940 10940 10941 10942 10942 10943 10944 10945 10946 10947 10948 10948 10949 10949 10950 10950 10949 10949 10949 10951 10951 10952 10951 10952 10952 10952 10952 10953 10952 10952 10951 10949 10947
10991 10988 10986 10984 10983 10981 10980 10980 10978 10977 10975 10974 10973 10972 10971 10970 10970 10969 10968 10967 10966 10964 10962 10960 10958 10956 10954 10952 10950 10949 10947 10946 10944 10943 10941 10940 10939 10938 10937 10936 10934 10933 10930 10928 10927 10928 10931 10933 10935 10937 10939 10940 10941 10941 10942 10942 10943 10944 10945 10946 10946 10947 10949 10949 10950 10950 10950 10950 10950 10949 10950 10951 10952 10952 10952 10952 10952 10952 10952 10952 10951 10951 10950 10949 10948
10991 10989 10987 10985 10983 10982 10981 10980 10979 10978 10976 10975 10974 10973 10972 10971 10970 10970 10969 10967 10966 10964 10962 10959 10957 10956 10954 10953 10951 10949 10948 10946 10945 10943 10942 10941 10940 10939 10938 10937 10936 10934 10932 10930 10929 10930 10932 10934 10936 10938 10940 10941 10942 10942 10943 10944 10945 10945 10945 10946 10947 10948 10949 10950 10950 10950 10950 10950 10951 10951 10951 10951 10952 10952 10952 10952 10952 10952 10952 10952 10951 10950 10950 10949 10948
10991 10989 10987 10985 10984 10983 10982 10981 10979 10978 10977 10975 10974 10973 10972 10972 10971 10970 10969 10967 10966 10964 10962 10960 10958 10956 10955 10953 10952 10950 10949 10947 10945 10944 10943 10943 10942 10941 10940 10939 10938 10936 10934 10932 10931 10932 10933 10935 10938 10940 10941 10942 10943 10943 10944 10945 10945 10946 10946 10946 10948 10949 10950 10951 10951 10951 10950 10950 10951 10952 10952 10952 10952 10952 10952 10952 10952 10952 10952 10952 10951 10950 10949 10948 10948
10990 10988 10986 10985 10983 10982 10981 10980 10979 10978 10977 10976 10975 10974 10973 10972 10972 10971 10969 10968 10966 10965 10963 10960 10958 10957 10955 10954 10953 10952 10950 10948 10947 10946 10945 10945 10944 10943 10942 10941 10940 10938 10937 10936 10935 10935 10935 10937 10939 10941 10942 10943 10944 10945 10945 10945 10945 10946 10946 10946 10948 10949 10950 10951 10951 10951 10950 10951 10952 10952 10952 10953 10953 10953 10953 10952 10952 10952 10952 10951 10950 10949 10949 10948 10947
10990 10988 10986 10985 10983 10982 10981 10980 10979 10979 10977 10976 10975 10974 10973 10973 10972 10971 10970 10968 10967 10965 10963 10961 10959 10957 10956 10955 10954 10953 10951 10950 10949 10948 10947 10947 10946 10945 10944 10942 10941 10941 10940 10939 10938 10938 10939 10939 10940 10941 10942 10943 10944 10944 10945 10945 10945 10945 10946 10947 10948 10949 10950 10951 10952 10952 10951 10951 10952 10952 10953 10953 10952 10952 10952 10952 10952 10952 10952 10951 10949 10948 10948 10948 10947
10990 10988 10986 10985 10983 10982 10982 10981 10980 10979 10978 10976 10975 10975 10974 10973 10973 10972 10971 10969 10968 10966 10964 10961 10960 10958 10957 10956 10955 10954 10953 10952 10950 10949 10949 10948 10948 10946 10945 10944 10943 10942 10942 10941 10940 10941 10942 10942 10941 10941 10941 10941 10941 10942 10943 10943 10943 10945 10946 10947 10948 10949 10950 10951 10952 10952 10950 10950 10951 10952 10953 10953 10952 10952 10952 10952 10951 10951 10951 10950 10949 10948 10948 10948 10947
10990 10988 10987 10985 10984 10983 10982 10981 10981 10979 10978 10977 10976 10975 10974 10974 10974 10973 10972 10970 10968 10967 10965 10962 10961 10959 10958 10957 10957 10956 10954 10953 10952 10951 10951 10950 10948 10947 10946 10945 10944 10943 10943 10943 10942 10943 10943 10944 10945 10945 10945 10944 10942 10942 10942 10942 10943 10945 10946 10947 10948 10949 10949 10950 10952 10952 10951 10950 10950 10951 10953 10953 10952 10951 10951 10951 10951 10950 10950 10949 10948 10948 10948 10948 10947
10990 10988 10987 10986 10985 10984 10983 10982 10981 10980 10979 10977 10976 10976 10975 10975 10975 10974 10972 10971 10970 10968 10965 10963 10962 10961 10960 10959 10958 10957 10956 10955 10953 10953 10952 10950 10949 10948 10947 10946 10945 10945 10945 10944 10944 10944 10945 10946 10947 10948 10949 10948 10946 10946 10945 10945 10945 10946 10947 10947 10948 10948 10949 10950 10952 10953 10952 10951 10949 10949 10951 10952 10950 10950 10949 10949 10950 10949 10948 10948 10948 10948 10948 10947 10947
10990 10988 10987 10986 10985 10984 10984 10983 10982 10981 10980 10979 10978 10978 10977 10976 10976 10975 10973 10972 10971 10969 10966 10965 10964 10963 10962 10961 10960 10959 10957 10956 10954 10953 10952 10951 10950 10949 10948 10948 10947 10946 10946 10946 10945 10946 10946 10946 10948 10949 10950 10949 10949 10949 10949 10948 10947 10948 10948 10948 10948 10949 10949 10950 10951 10952 10953 10952 10950 10950 10951 10951 10950 10950 10949 10948 10948 10948 10948 10948 10948 10948 10947 10947 10947
10990 10989 10987 10986 10986 10985 10984 10984 10983 10982 10981 10980 10980 10979 10979 10978 10977 10976 10974 10973 10971 10970 10968 10966 10966 10965 10964 10962 10961 10960 10958 10957 10955 10954 10953 10953 10952 10951 10950 10949 10949 10948 10948 10947 10947 10947 10947 10947 10948 10949 10949 10949 10949 10950 10950 10949 10949 10949 10948 10948 10949 10949 10949 10950 10951 10952 10953 10952 10950 10950 10951 10951 10950 10950 10948 10947 10947 10947 10947 10948 10948 10947 10947 10947 10947
10990 10989 10988 10987 10986 10986 10985 10984 10984 10983 10982 10981 10981 10981 10980 10979 10978 10977 10976 10974 10972 10971 10970 10969 10968 10967 10966 10964 10963 10961 10960 10958 10957 10956 10955 10954 10953 10952 10952 10951 10950 10950 10949 10949 10949 10949 10949 10949 10949 10950 10950 10950 10950 10950 10950 10950 10950 10950 10949 10949 10949 10949 10950 10950 10950 10951 10952 10951 10950 10950 10951 10951 10950 10950 10949 10948 10948 10948 10948 10948 10948 10947 10947 10947 10947
10991 10989 10989 10988 10987 10986 10986 10985 10985 10984 10983 10983 10982 10982 10981 10981 10980 10978 10977 10975 10973 10972 10972 10971 10971 10970 10968 10967 10965 10964 10962 10961 10959 10958 10957 10956 10955 10954 10954 10953 10952 10952 10951 10951 10951 10951 10951 10951 10951 10951 10951 10951 10951 10951 10951 10951 10951 10951 10951 10950 10950 10950 10950 10950 10950 10950 10950 10950 10949 10950 10950 10950 10950 10949 10949 10948 10948 10948 10948 10948 10948 10948 10948 10947 10947
10991 10990 10989 10988 10988 10987 10987 10987 10986 10985 10985 10984 10983 10983 10982 10982 10981 10979 10978 10976 10975 10974 10973 10973 10973 10972 10971 10969 10968 10967 10965 10964 10962 10961 10960 10959 10958 10957 10956 10955 10954 10954 10953 10953 10953 10953 10953 10953 10953 10953 10953 10953 10953 10953 10952 10953 10953 10953 10952 10951 10951 10951 10951 10951 10951 10950 10950 10950 10949 10950 10950 10950 10949 10949 10948 10947 10948 10948 10949 10949 10949 10949 10948 10947 10947
10991 10990 10990 10989 10988 10988 10988 10988 10987 10987 10986 10985 10985 10984 10983 10983 10982 10980 10979 10978 10977 10976 10976 10975 10975 10975 10974 10972 10971 10970 10968 10967 10966 10965 10963 10962 10961 10960 10959 10958 10957 10957 10956 10956 10955 10955 10955 10955 10955 10955 10955 10955 10955 10955 10955 10955 10955 10955 10954 10953 10953 10953 10952 10952 10952 10951 10951 10951 10950 10950 10950 10950 10949 10948 10948 10947 10948 10948 10949 10949 10949 10949 10948 10948 10947
10991 10990 10990 10989 10989 10988 10988 10988 10988 10988 10987 10987 10986 10985 10984 10984 10983 10982 10981 10980 10979 10978 10978 10977 10977 10977 10976 10975 10974 10973 10972 10970 10969 10968 10967 10966 10965 10963 10962 10961 10960 10960 10959 10959 10958 10958 10958 10958 10958 10958 10958 10958 10958 10959 10958 10958 10958 10957 10957 10956 10956 10955 10955 10954 10953 10953 10952 10952 10952 10951 10951 10950 10950 10950 10949 10949 10949 10949 10949 10949 10949 10949 10949 10948 10948
10990 10990 10989 10989 10989 10989 10989 10989 10989 10989 10988 10988 10987 10986 10986 10985 10984 10983 10983 10982 10981 10981 10980 10980 10980 10980 10979 10978 10977 10976 10975 10974 10973 10972 10971 10970 10969 10967 10966 10965 10964 10963 10963 10962 10962 10962 10961 10961 10961 10961 10961 10961 10962 10963 10962 10961 10961 10961 10960 10960 10959 10959 10958 10957 10956 10956 10955 10954 10954 10953 10952 10952 10951 10951 10950 10950 10950 10950 10950 10950 10950 10950 10949 10949 10949
10989 10989 10989 10989 10989 10989 10989 10989 10989 10989 10989 10989 10988 10987 10987 10987 10986 10985 10985 10984 10984 10983 10982 10982 10982 10982 10982 10981 10980 10979 10978 10977 10976 10976 10975 10974 10972 10971 10969 10968 10968 10967 10967 10967 10966 10966 10966 10966 10966 10966 10966 10966 10966 10966 10966 10965 10965 10965 10964 10963 10963 10963 10962 10961 10960 10959 10958 10958 10957 10956 10955 10954 10953 10953 10952 10952 10952 10951 10951 10951 10951 10951 10951 10950 10950
10988 10988 10988 10988 10989 10989 10989 10990 10990 10990 10990 10990 10989 10988 10988 10988 10988 10987 10986 10986 10986 10985 10984 10984 10985 10985 10984 10983 10983 10982 10981 10980 10980 10979 10978 10977 10976 10975 10973 10972 10971 10970 10971 10971 10970 10971 10971 10971 10971 10971 10971 10971 10969 10969 10969 10968 10968 10968 10967 10966 10966 10965 10965 10964 10963 10962 10962 10961 10960 10959 10958 10957 10956 10956 10955 10955 10954 10954 10954 10953 10953 10953 10953 10952 10951
10988 10988 10988 10988 10989 10989 10990 10990 10990 10990 10990 10990 10990 10989 10990 10990 10989 10989 10988 10988 10988 10987 10986 10987 10987 10987 10987 10986 10985 10985 10984 10984 10983 10982 10981 10980 10979 10978 10977 10975 10974 10974 10974 10974 10974 10975 10976 10975 10975 10975 10975 10974 10972 10972 10971 10971 10971 10970 10969 10968 10968 10967 10966 10966 10965 10964 10964 10963 10962 10961 10960 10960 10959 10958 10958 10957 10957 10956 10956 10956 10955 10955 10955 10954 10953
10987 10987 10988 10988 10989 10989 10990 10990 10990 10991 10991 10991 10991 10991 10991 10991 10991 10991 10990 10990 10990 10989 10989 10989 10989 10989 10989 10988 10988 10987 10987 10987 10986 10985 10984 10983 10982 10981 10980 10978 10978 10977 10977 10977 10977 10978 10978 10978 10978 10977 10977 10976 10975 10974 10974 10973 10973 10972 10971 10970 10969 10968 10968 10967 10967 10966 10965 10964 10963 10962 10962 10961 10960 10960 10959 10958 10958 10958 10958 10958 10957 10957 10956 10955 10954
10986 10987 10988 10988 10989 10989 10990 10990 10991 10991 10991 10992 10992 10992 10993 10993 10993 10992 10993 10993 10993 10992 10991 10991 10991 10991 10991 10990 10990 10990 10990 10989 10989 10988 10987 10986 10984 10983 10983 10982 10981 10981 10980 10980 10980 10980 10980 10980 10980 10979 10979 10978 10977 10976 10976 10975 10975 10974 10973 10972 10971 10970 10969 10969 10969 10968 10967 10966 10965 10965 10964 10963 10962 10961 10961 10960 10960 10960 10959 10959 10958 10957 10956 10955 10955
10986 10987 10988 10989 10989 10990 10990 10991 10991 10992 10992 10993 10993 10993 10994 10994 10994 10994 10995 10995 10995 10994 10993 10993 10993 10993 10993 10993 10992 10992 10992 10992 10991 10990 10989 10988 10987 10986 10986 10985 10984 10984 10983 10983 10982 10982 10982 10982 10982 10982 10981 10981 10980 10979 10978 10978 10978 10977 10976 10975 10974 10973 10972 10972 10971 10971 10970 10970 10969 10968 10967 10966 10965 10964 10964 10963 10962 10961 10961 10960 10959 10958 10958 10957 10957
10986 10987 10988 10989 10989 10990 10991 10991 10992 10992 10993 10993 10994 10995 10995 10996 10996 10996 10997 10997 10997 10996 10995 10995 10995 10995 10995 10995 10995 10994 10994 10994 10993 10993 10992 10991 10990 10989 10989 10988 10988 10987 10987 10986 10986 10985 10985 10985 10984 10984 10984 10983 10983 10982 10981 10981 10980 10980 10979 10978 10978 10977 10976 10975 10974 10974 10974 10973 10973 10972 10971 10970 10969 10968 10968 10967 10966 10965 10964 10963 10962 10962 10961 10960 10960
10986 10987 10989 10989 10990 10990 10991 10992 10992 10993 10994 10994 10995 10996 10997 10997 10997 10998 10999 10999 10998 10998 10997 10997 10997 10997 10997 10997 10997 10997 10996 10996 10996 10995 10995 10994 10993 10992 10992 10991 10991 10990 10990 10989 10989 10988 10988 10988 10987 10987 10987 10986 10986 10985 10985 10984 10983 10983 10983 10982 10981 10981 10979 10978 10978 10977 10977 10977 10977 10976 10975 10974 10973 10972 10972 10971 10970 10968 10967 10967 10966 10965 10964 10964 10963
10986 10988 10989 10990 10990 10991 10991 10992 10993 10994 10994 10995 10996 10997 10998 10998 10999 11000 11000 11000 11000 11000 10999 10999 10999 10999 10999 10999 10999 10999 10999 10998 10998 10998 10998 10997 10996 10995 10994 10994 10994 10993 10993 10993 10992 10991 10991 10991 10990 10990 10990 10989 10989 10988 10988 10987 10986 10986 10986 10985 10985 10984 10983 10982 10981 10981 10980 10980 10980 10979 10978 10977 10976 10975 10975 10974 10973 10972 10971 10970 10969 10968 10967 10966 10966
10987 10988 10990 10990 10991 10991 10992 10992 10993 10994 10995 10996 10997 10998 10999 11000 11001 11002 11002 11002 11002 11001 11001 11001 11001 11001 11001 11002 11002 11002 11002 11001 11001 11001 11000 11000 10999 10998 10997 10997 10997 10996 10996 10995 10995 10994 10994 10993 10993 10993 10993 10992 10992 10991 10990 10990 10989 10989 10989 10989 10988 10987 10986 10985 10984 10984 10983 10983 10982 10982 10981 10980 10979 10978 10977 10976 10975 10974 10973 10972 10971 10970 10970 10969 10968
10988 10989 10990 10991 10991 10992 10992 10993 10994 10995 10996 10997 10997 10999 11000 11001 11002 11003 11004 11004 11004 11003 11003 11003 11003 11003 11003 11004 11004 11004 11004 11004 11004 11003 11003 11002 11001 11000 11000 11000 10999 10999 10998 10998 10997 10997 10996 10996 10996 10996 10996 10995 10995 10994 10993 10993 10992 10992 10992 10991 10990 10989 10989 10988 10987 10986 10986 10985 10985 10984 10984 10983 10982 10980 10979 10978 10977 10976 10975 10974 10973 10972 10972 10971 10970
10988 10990 10991 10991 10992 10992 10993 10993 10994 10995 10996 10997 10998 10999 11001 11002 11003 11004 11005 11005 11005 11005 11005 11005 11005 11005 11006 11006 11007 11007 11007 11006 11006 11006 11006 11005 11004 11003 11003 11002 11002 11001 11001 11000 11000 10999 10999 10999 10998 10998 10998 10998 10997 10996 10996 10995 10995 10995 10994 10993 10992 10992 10991 10990 10989 10988 10988 10987 10987 10986 10986 10985 10984 10983 10982 10981 10980 10979 10977 10976 10975 10974 10973 10972 10971
10989 10990 10991 10991 10992 10993 10993 10993 10994 10996 10997 10998 10999 11000 11001 11003 11004 11005 11006 11007 11007 11007 11007 11007 11007 11007 11008 11008 11009 11009 11009 11009 11008 11008 11008 11007 11006 11006 11005 11005 11004 11003 11003 11003 11003 11002 11002 11001 11001 11001 11001 11000 11000 10999 10998 10998 10997 10997 10996 10995 10995 10994 10993 10992 10991 10990 10990 10989 10989 10988 10987 10987 10986 10984 10983 10982 10981 10980 10979 10978 10977 10976 10975 10974 10972
10990 10991 10992 10992 10992 10993 10994 10994 10995 10996 10998 10999 11000 11001 11002 11004 11005 11006 11007 11008 11008 11008 11008 11008 11009 11009 11010 11010 11011 11011 11011 11011 11010 11010 11010 11009 11009 11008 11007 11007 11006 11006 11006 11005 11005 11005 11005 11004 11004 11004 11003 11003 11002 11002 11001 11000 11000 10999 10998 10997 10997 10996 10995 10994 10993 10992 10992 10991 10990 10990 10989 10988 10987 10986 10985 10984 10983 10981 10980 10979 10978 10976 10975 10974 10973
10990 10992 10992 10993 10993 10993 10994 10995 10995 10997 10998 11000 11001 11002 11003 11004 11006 11007 11008 11009 11009 11010 11010 11010 11010 11011 11011 11012 11012 11013 11013 11012 11012 11012 11012 11012 11011 11010 11010 11009 11009 11008 11008 11008 11008 11008 11007 11007 11007 11006 11006 11005 11005 11004 11003 11003 11002 11001 11001 11000 10999 10998 10997 10996 10995 10994 10994 10993 10992 10991 10990 10989 10988 10987 10986 10984 10983 10982 10980 10979 10978 10976 10975 10974 10973
10991 10992 10993 10993 10993 10994 10994 10995 10996 10997 10999 11001 11002 11003 11004 11005 11007 11008 11009 11010 11011 11011 11011 11011 11012 11012 11013 11014 11014 11014 11014 11014 11014 11014 11014 11014 11013 11013 11012 11011 11011 11011 11011 11011 11011 11010 11010 11010 11009 11009 11008 11008 11007 11006 11006 11005 11005 11004 11003 11002 11001 11000 10999 10998 10997 10996 10995 10995 10993 10992 10991 10990 10989 10988 10986 10985 10984 10982 10981 10979 10978 10976 10975 10973 10972
10991 10992 10993 10993 10994 10994 10995 10996 10997 10998 11000 11002 11003 11004 11005 11006 11007 11009 11010 11011 11011 11012 11012 11013 11013 11014 11015 11015 11016 11016 11016 11016 11016 11016 11016 11016 11016 11015 11014 11014 11014 11014 11014 11014 11013 11013 11012 11012 11011 11011 11010 11010 11009 11008 11008 11007 11007 11006 11005 11004 11003 11002 11001 11000 10999 10998 10997 10996 10995 10994 10992 10991 10990 10988 10987 10985 10984 10982 10981 10979 10977 10976 10974 10973 10971
10991 10992 10994 10994 10994 10995 10996 10996 10998 10999 11001 11002 11004 11005 11006 11007 11008 11009 11010 11011 11012 11013 11013 11014 11014 11015 11016 11017 11017 11018 11018 11018 11018 11018 11018 11018 11018 11017 11016 11016 11016 11016 11016 11016 11016 11015 11014 11014 11013 11013 11012 11012 11011 11010 11010 11009 11008 11008 11007 11006 11005 11004 11003 11001 11001 11000 10999 10998 10997 10995 10994 10992 10991 10989 10987 10985 10984 10982 10980 10978 10977 10975 10973 10971 10970
10992 10993 10994 10995 10995 10996 10996 10997 10998 11000 11001 11003 11004 11005 11007 11008 11008 11010 11010 11011 11012 11013 11014 11015 11016 11017 11018 11018 11019 11019 11020 11019 11020 11020 11020 11020 11020 11019 11019 11018 11018 11018 11018 11018 11017 11017 11016 11016 11015 11014 11014 11013 11013 11012 11012 11011 11010 11010 11009 11008 11007 11006 11004 11003 11002 11001 11000 10999 10998 10996 10995 10993 10991 10989 10987 10985 10983 10981 10979 10977 10975 10973 10972 10970 10968
10992 10993 10994 10995 10995 10996 10997 10997 10999 11000 11002 11003 11004 11005 11006 11008 11009 11010 11011 11012 11013 11014 11014 11015 11016 11018 11019 11020 11020 11021 11021 11021 11021 11021 11022 11022 11022 11022 11021 11020 11020 11020 11020 11020 11019 11019 11018 11017 11017 11016 11015 11015 11014 11014 11013 11013 11012 11012 11011 11010 11009 11008 11006 11005 11004 11003 11002 11000 10999 10997 10995 10993 10991 10989 10987 10984 10982 10980 10978 10976 10974 10972 10970 10969 10967
10992 10993 10994 10995 10995 10996 10997 10998 10998 11000 11002 11003 11004 11005 11006 11008 11009 11010 11011 11012 11013 11014 11015 11016 11017 11019 11020 11021 11021 11022 11023 11023 11022 11022 11023 11023 11023 11023 11023 11022 11022 11022 11022 11021 11021 11020 11020 11019 11019 11018 11017 11017 11016 11016 11015 11015 11014 11013 11012 11012 11011 11009 11008 11007 11006 11004 11003 11001 11000 10998 10996 10993 10991 10988 10986 10984 10981 10979 10977 10975 10974 10972 10970 10968 10966
10992 10993 10994 10995 10995 10996 10997 10998 10999 11000 11002 11003 11004 11005 11006 11008 11009 11011 11012 11013 11014 11015 11016 11017 11018 11019 11020 11021 11022 11023 11024 11024 11024 11024 11024 11024 11025 11025 11025 11024 11024 11024 11024 11023 11023 11022 11022 11021 11020 11020 11019 11018 11018 11017 11016 11016 11015 11014 11014 11013 11012 11011 11010 11008 11007 11006 11004 11002 11000 10998 10996 10994 10991 10988 10985 10983 10981 10979 10977 10975 10973 10971 10969 10967 10965
10992 10993 10993 10995 10996 10996 10997 10998 10999 11000 11002 11003 11005 11006 11007 11009 11010 11012 11013 11014 11015 11016 11017 11018 11019 11020 11021 11022 11023 11024 11024 11025 11024 11024 11025 11025 11026 11026 11026 11026 11026 11025 11025 11025 11024 11024 11023 11023 11022 11021 11021 11020 11019 11018 11018 11017 11017 11016 11015 11014 11013 11012 11011 11010 11008 11007 11005 11003 11001 10999 10996 10993 10990 10988 10985 10983 10981 10979 10977 10975 10973 10971 10968 10966 10964
10991 10992 10993 10994 10996 10996 10997 10998 10999 11000 11002 11003 11005 11007 11009 11010 11011 11012 11014 11015 11016 11016 11017 11018 11019 11020 11021 11022 11023 11024 11025 11025 11025 11025 11025 11026 11027 11027 11027 11027 11027 11027 11026 11026 11025 11025 11024 11024 11023 11023 11022 11021 11021 11020 11019 11018 11018 11017 11016 11015 11014 11013 11012 11010 11009 11007 11005 11003 11001 10999 10996 10993 10990 10988 10985 10983 10981 10979 10977 10975 10973 10970 10968 10966 10963
10991 10992 10993 10994 10995 10996 10997 10997 10998 11000 11002 11004 11005 11008 11009 11011 11011 11012 11013 11014 11015 11016 11017 11018 11019 11020 11022 11022 11023 11024 11025 11025 11025 11025 11026 11027 11027 11028 11028 11028 11028 11028 11028 11027 11026 11026 11025 11025 11024 11024 11024 11023 11022 11021 11020 11020 11019 11018 11017 11016 11015 11014 11013 11011 11010 11008 11006 11004 11002 10999 10996 10993 10990 10988 10986 10984 10981 10979 10977 10975 10972 10970 10968 10965 10963
10990 10992 10993 10993 10994 10996 10997 10998 10998 11000 11001 11003 11005 11007 11009 11010 11011 11012 11012 11013 11014 11016 11017 11018 11019 11021 11022 11022 11023 11024 11025 11025 11026 11026 11026 11027 11028 11028 11028 11028 11028 11028 11028 11028 11027 11027 11026 11026 11026 11025 11025 11024 11023 11022 11021 11021 11020 11019 11018 11017 11016 11015 11014 11012 11010 11008 11006 11004 11002 10999 10996 10994 10991 10989 10987 10984 10982 10979 10977 10974 10972 10970 10967 10965 10962
10989 10991 10992 10993 10994 10995 10996 10997 10998 10999 11001 11002 11004 11006 11008 11009 11010 11011 11012 11013 11014 11016 11017 11018 11019 11020 11021 11022 11023 11024 11025 11025 11026 11026 11027 11027 11028 11029 11029 11029 11029 11029 11029 11028 11028 11027 11027 11026 11026 11026 11026 11025 11024 11023 11022 11022 11021 11020 11019 11018 11017 11015 11014 11012 11010 11008 11006 11004 11002 11000 10997 10995 10992 10989 10987 10984 10982 10979 10977 10974 10972 10970 10968 10965 10962
10989 10990 10991 10992 10993 10994 10995 10997 10998 10999 11000 11001 11003 11004 11006 11007 11009 11010 11012 11013 11015 11016 11017 11018 11019 11020 11021 11022 11023 11024 11024 11025 11026 11026 11027 11027 11028 11029 11029 11029 11029 11029 11029 11029 11028 11028 11027 11027 11027 11026 11026 11025 11025 11024 11023 11022 11021 11020 11019 11018 11017 11016 11015 11013 11011 11009 11007 11005 11003 11000 10997 10995 10992 10989 10987 10984 10982 10979 10977 10975 10973 10970 10968 10965 10962
10988 10989 10990 10991 10993 10994 10994 10996 10997 10998 10999 11001 11002 11003 11004 11006 11007 11009 11011 11013 11015 11016 11017 11019 11019 11020 11021 11022 11023 11023 11024 11025 11025 11026 11026 11027 11028 11028 11029 11029 11028 11028 11028 11028 11028 11028 11027 11027 11026 11026 11025 11025 11024 11023 11023 11022 11021 11020 11020 11019 11018 11016 11015 11013 11011 11009 11007 11005 11003 11000 10997 10994 10991 10989 10987 10984 10982 10980 10978 10976 10973 10971 10968 10965 10963